This demonstration page uses our WeatherBlox Daily Observations layout. Learn more.

Left ArrowRight Arrow

Hourly Observations for April 8, 2016

Temp ( °F °C ) Dew Point ( °F °C ) Humidity (%) Winds ( mph kmh ) Pressure ( in mb ) Visibility ( mi km ) Precip ( " mm )
12:15 am 00:15 Clear 37 3 16 -9 41 41 WNW 8 13 30.21 1023 10 16 0.00 0.00
12:35 am 00:35 Clear 37 3 16 -9 41 41 W 6 9 30.21 1023 10 16 0.00 0.00
12:55 am 00:55 Clear 39 4 18 -8 42 42 W 7 11 30.21 1023 10 16 0.00 0.00
1:15 am 01:15 Clear 39 4 18 -8 42 42 W 6 9 30.21 1023 10 16 0.00 0.00
1:35 am 01:35 Clear 36 2 18 -8 48 48 N 8 13 30.27 1025 10 16 0.00 0.00
1:55 am 01:55 Clear 36 2 18 -8 48 48 NNW 8 13 30.27 1025 10 16 0.00 0.00
2:15 am 02:15 Clear 36 2 16 -9 44 44 NW 7 11 30.27 1025 10 16 0.00 0.00
2:35 am 02:35 Clear 30 -1 14 -10 51 51 WNW 9 15 30.30 1026 10 16 0.00 0.00
2:55 am 02:55 Clear 34 1 18 -8 51 51 NW 7 11 30.27 1025 10 16 0.00 0.00
3:15 am 03:15 Clear 34 1 18 -8 51 51 NW 7 11 30.27 1025 10 16 0.00 0.00
3:35 am 03:35 Clear 30 -1 16 -9 55 55 NW 8 13 30.30 1026 10 16 0.00 0.00
3:55 am 03:55 Clear 32 0 16 -9 51 51 NW 7 11 30.27 1025 10 16 0.00 0.00
4:15 am 04:15 Clear 30 -1 18 -8 59 59 NW 7 11 30.30 1026 10 16 0.00 0.00
4:35 am 04:35 Clear 30 -1 18 -8 59 59 NW 8 13 30.30 1026 10 16 0.00 0.00
4:55 am 04:55 Clear 30 -1 18 -8 59 59 NW 8 13 30.30 1026 10 16 0.00 0.00
5:15 am 05:15 Clear 30 -1 18 -8 59 59 NW 8 13 30.30 1026 10 16 0.00 0.00
5:35 am 05:35 Clear 28 -2 16 -9 59 59 WNW 7 11 30.30 1026 10 16 0.00 0.00
5:55 am 05:55 Clear 28 -2 18 -8 64 64 WNW 8 13 30.30 1026 10 16 0.00 0.00
6:15 am 06:15 Clear 28 -2 18 -8 64 64 WNW 7 11 30.30 1026 10 16 0.00 0.00
6:35 am 06:35 Clear 28 -2 18 -8 64 64 W 6 9 30.30 1026 10 16 0.00 0.00
6:55 am 06:55 Clear 30 -1 19 -7 64 64 WSW 6 9 30.30 1026 10 16 0.00 0.00
7:15 am 07:15 Sunny 30 -1 19 -7 64 64 W 5 7 30.30 1026 10 16 0.00 0.00
7:35 am 07:35 Sunny 28 -2 19 -7 69 69 Calm 30.30 1026 10 16 0.00 0.00
7:55 am 07:55 Sunny 30 -1 19 -7 64 64 WNW 5 7 30.30 1026 10 16 0.00 0.00
8:15 am 08:15 Sunny 30 -1 21 -6 69 69 Calm 30.30 1026 10 16 0.00 0.00
8:35 am 08:35 Mostly Sunny 36 2 23 -5 60 60 WNW 5 7 30.27 1025 10 16 0.00 0.00
8:55 am 08:55 Partly Cloudy 37 3 25 -4 60 60 NW 6 9 30.24 1024 10 16 0.00 0.00
9:15 am 09:15 Mostly Cloudy 41 5 25 -4 53 53 NNW 7 11 30.24 1024 10 16 0.00 0.00
9:35 am 09:35 Mostly Cloudy 45 7 25 -4 46 46 W 6 9 30.24 1024 10 16 0.00 0.00
9:55 am 09:55 Mostly Sunny 46 8 25 -4 43 43 W 3 6 30.24 1024 10 16 0.00 0.00
10:15 am 10:15 Sunny 46 8 25 -4 43 43 WSW 8 13 30.24 1024 10 16 0.00 0.00
10:35 am 10:35 Sunny 48 9 25 -4 40 40 WSW 9 15 30.24 1024 10 16 0.00 0.00
10:55 am 10:55 Sunny 52 11 25 -4 35 35 W 5 7 30.21 1023 10 16 0.00 0.00
11:15 am 11:15 Sunny 54 12 21 -6 28 28 NW 10 17 30.21 1023 10 16 0.00 0.00
11:35 am 11:35 Sunny 54 12 21 -6 28 28 WNW 12 19 30.21 1023 10 16 0.00 0.00
11:55 am 11:55 Sunny 55 13 21 -6 26 26 WNW 9 15 30.21 1023 10 16 0.00 0.00
12:15 pm 12:15 Sunny 57 14 23 -5 27 27 NW 12 19 30.18 1022 10 16 0.00 0.00
12:35 pm 12:35 Sunny 55 13 21 -6 26 26 WNW 6 9 30.18 1022 10 16 0.00 0.00
12:55 pm 12:55 Sunny 57 14 25 -4 29 29 NW 12 19 30.15 1021 10 16 0.00 0.00
1:15 pm 13:15 Sunny 61 16 25 -4 25 25 WNW 14 22 30.15 1021 10 16 0.00 0.00
1:35 pm 13:35 Sunny 61 16 25 -4 25 25 NNW 14 22 30.15 1021 10 16 0.00 0.00
1:55 pm 13:55 Sunny 61 16 25 -4 25 25 NW 17 28 30.15 1021 10 16 0.00 0.00
2:15 pm 14:15 Sunny 63 17 25 -4 24 24 NNW 18 30 30.09 1019 10 16 0.00 0.00
2:35 pm 14:35 Sunny 63 17 25 -4 24 24 NNW 14 22 30.09 1019 10 16 0.00 0.00
2:55 pm 14:55 Sunny 63 17 27 -3 25 25 N 14 22 30.09 1019 10 16 0.00 0.00
3:15 pm 15:15 Sunny 63 17 25 -4 24 24 N 13 20 30.09 1019 10 16 0.00 0.00
3:35 pm 15:35 Sunny 63 17 27 -3 25 25 N 13 20 30.06 1018 10 16 0.00 0.00
3:55 pm 15:55 Sunny 64 18 27 -3 24 24 NNW 15 24 30.06 1018 10 16 0.00 0.00
4:15 pm 16:15 Sunny 63 17 27 -3 25 25 N 16 26 30.06 1018 10 16 0.00 0.00
4:35 pm 16:35 Sunny 64 18 27 -3 24 24 N 12 19 30.06 1018 10 16 0.00 0.00
4:55 pm 16:55 Sunny 63 17 27 -3 25 25 N 16 26 30.06 1018 10 16 0.00 0.00
5:15 pm 17:15 Sunny 63 17 27 -3 25 25 N 16 26 30.06 1018 10 16 0.00 0.00
5:35 pm 17:35 Sunny 63 17 27 -3 25 25 NNW 14 22 30.03 1017 10 16 0.00 0.00
5:55 pm 17:55 Sunny 63 17 27 -3 25 25 N 16 26 30.03 1017 10 16 0.00 0.00
6:15 pm 18:15 Sunny 63 17 27 -3 25 25 N 13 20 30.03 1017 10 16 0.00 0.00
6:35 pm 18:35 Sunny 61 16 27 -3 27 27 NNE 16 26 30.06 1018 10 16 0.00 0.00
6:55 pm 18:55 Sunny 59 15 27 -3 29 29 NNE 17 28 30.06 1018 10 16 0.00 0.00
7:15 pm 19:15 Sunny 57 14 25 -4 29 29 NNE 18 30 30.09 1019 10 16 0.00 0.00
7:35 pm 19:35 Sunny 55 13 25 -4 31 31 NE 17 28 30.09 1019 10 16 0.00 0.00
7:55 pm 19:55 Sunny 54 12 25 -4 33 33 NE 14 22 30.12 1020 10 16 0.00 0.00
8:15 pm 20:15 Clear 52 11 25 -4 35 35 NE 15 24 30.12 1020 10 16 0.00 0.00
8:35 pm 20:35 Clear 48 9 25 -4 40 40 ENE 12 19 30.15 1021 10 16 0.00 0.00
8:55 pm 20:55 Clear 48 9 25 -4 40 40 ENE 14 22 30.15 1021 10 16 0.00 0.00
9:15 pm 21:15 Clear 46 8 25 -4 43 43 NE 15 24 30.15 1021 10 16 0.00 0.00
9:35 pm 21:35 Clear 43 6 23 -5 46 46 NE 10 17 30.21 1023 10 16 0.00 0.00
9:55 pm 21:55 Clear 43 6 23 -5 46 46 ENE 8 13 30.21 1023 10 16 0.00 0.00
10:15 pm 22:15 Clear 39 4 21 -6 48 48 ENE 9 15 30.21 1023 10 16 0.00 0.00
10:35 pm 22:35 Clear 37 3 21 -6 52 52 ENE 9 15 30.21 1023 10 16 0.00 0.00
10:55 pm 22:55 Clear 37 3 21 -6 52 52 NE 10 17 30.21 1023 10 16 0.00 0.00
11:15 pm 23:15 Clear 39 4 23 -5 52 52 ENE 10 17 30.21 1023 10 16 0.00 0.00
11:35 pm 23:35 Clear 37 3 23 -5 56 56 E 9 15 30.21 1023 10 16 0.00 0.00
11:55 pm 23:55 Clear 36 2 23 -5 60 60 E 8 13 30.24 1024 10 16 0.00 0.00

Powered by AerisWeather